Latrobe, PA

2:46 AM EDT on August 25, 2019 (GMT -0400)
Arnold Palmer Regional

Weather History for KLBE - May, 2019

Change the Weather History Date:

Monday, May 20, 2019

  Actual Average Record
Temperature  
Mean Temperature 66 °F -  
Max Temperature 73 °F 70 °F 86 °F (1998)
Min Temperature 55 °F 48 °F 32 °F (2002)
Cooling Degree Days 1    
Growing Degree Days 16 (Base 50)    
Moisture  
Dew Point 60 °F    
Average Humidity 83    
Maximum Humidity 100    
Minimum Humidity 56    
Precipitation  
Precipitation 0.00 in - - ()
Sea Level Pressure  
Sea Level Pressure 29.91 in    
Wind  
Wind Speed 10 mph (SW)    
Max Wind Speed 26 mph    
Max Gust Speed 36 mph    
Visibility 10 miles    
Events Rain    
Averages and records for this station are not official NWS values.
T = Trace of Precipitation, MM = Missing Value Source: NWS Daily Summary

Daily Weather History Graph

Daily Weather History Graph

Search for Another Location

Airport or City:

Astronomy

May. 20, 2019 Rise Set
Actual Time 5:57 AM EDT 8:31 PM EDT
Civil Twilight 5:26 AM EDT 9:02 PM EDT
Nautical Twilight 4:47 AM EDT 9:41 PM EDT
Astronomical Twilight 4:03 AM EDT 10:25 PM EDT
Moon 10:30 PM EDT (5/20) 7:24 AM EDT (5/20)
Length of Visible Light 15h 36m
Length of Day
14h 33m
Waning Gibbous, 96% of the Moon is Illuminated
May 20
Waning Gibbous
May 26
Last Quarter
Jun 3
New
Jun 10
First Quarter
Jun 17
Full

Hourly Weather History & Observations

Time (EDT) Temp. Dew Point Humidity Pressure Visibility Wind Dir Wind Speed Gust Speed Precip Events Conditions
12:15 AM 71.6 °F 64.4 °F 78% 29.87 in 10.0 mi NW 10.4 mph - N/A   Mostly Cloudy
12:35 AM 69.8 °F 62.6 °F 78% 29.87 in 10.0 mi Variable 5.8 mph 11.5 mph N/A   Scattered Clouds
12:55 AM 69.8 °F 62.6 °F 78% 29.87 in 10.0 mi NNW 4.6 mph - N/A   Mostly Cloudy
1:15 AM 68.0 °F 64.4 °F 88% 29.90 in 2.0 mi North - - N/A Rain Heavy Rain
1:35 AM 66.2 °F 66.2 °F 100% 29.90 in 2.5 mi SE 6.9 mph - N/A Rain Heavy Rain
1:55 AM 64.4 °F 64.4 °F 100% 29.90 in 9.0 mi South 6.9 mph - N/A   Light Drizzle
2:15 AM 64.4 °F 64.4 °F 100% 29.88 in 9.0 mi SSE 4.6 mph - N/A   Light Drizzle
2:35 AM 64.4 °F 64.4 °F 100% 29.87 in 10.0 mi South 5.8 mph - N/A   Mostly Cloudy
2:55 AM 64.4 °F 64.4 °F 100% 29.88 in 10.0 mi South 6.9 mph - N/A   Mostly Cloudy
3:15 AM 64.4 °F 64.4 °F 100% 29.87 in 10.0 mi South 6.9 mph - N/A   Partly Cloudy
3:35 AM 64.4 °F 64.4 °F 100% 29.88 in 10.0 mi SSW 6.9 mph - N/A   Partly Cloudy
3:55 AM 64.4 °F 64.4 °F 100% 29.87 in 10.0 mi South 8.1 mph - N/A   Partly Cloudy
4:15 AM 64.4 °F 64.4 °F 100% 29.87 in 10.0 mi SSW 9.2 mph - N/A   Mostly Cloudy
4:35 AM 66.2 °F 66.2 °F 100% 29.87 in 10.0 mi SSW 11.5 mph - N/A   Overcast
4:55 AM 66.2 °F 66.2 °F 100% 29.88 in 10.0 mi SSW 11.5 mph - N/A   Overcast
5:15 AM 66.2 °F 66.2 °F 100% 29.87 in 10.0 mi South 9.2 mph - N/A   Mostly Cloudy
5:35 AM 66.2 °F 66.2 °F 100% 29.87 in 10.0 mi SSW 11.5 mph - N/A   Mostly Cloudy
5:55 AM 66.2 °F 66.2 °F 100% 29.88 in 10.0 mi South 8.1 mph - N/A   Mostly Cloudy
6:53 AM 66.2 °F 66.2 °F 100% 29.89 in 10.0 mi SSW 13.8 mph - N/A   Overcast
7:53 AM 66.2 °F 66.2 °F 100% 29.90 in 8.0 mi SW 13.8 mph - N/A   Overcast
8:53 AM 64.4 °F 64.4 °F 100% 29.90 in 10.0 mi SW 17.3 mph - N/A   Mostly Cloudy
9:53 AM 66.2 °F 62.6 °F 88% 29.92 in 10.0 mi WSW 16.1 mph - N/A   Mostly Cloudy
10:53 AM 66.2 °F 62.6 °F 88% 29.91 in 10.0 mi WSW 13.8 mph - N/A   Overcast
11:53 AM 68.0 °F 60.8 °F 78% 29.92 in 10.0 mi WSW 17.3 mph - N/A   Mostly Cloudy
12:45 PM 69.8 °F 60.8 °F 73% 29.92 in 10.0 mi West 17.3 mph - N/A   Mostly Cloudy
1:45 PM 73.4 °F 57.2 °F 57% 29.91 in 10.0 mi WSW 24.2 mph 35.7 mph N/A   Mostly Cloudy
2:45 PM 73.4 °F 57.2 °F 57% 29.90 in 10.0 mi SW 23.0 mph 34.5 mph N/A   Scattered Clouds
3:45 PM 73.4 °F 57.2 °F 57% 29.88 in 10.0 mi SW 20.7 mph 32.2 mph N/A   Mostly Cloudy
4:51 PM 73.4 °F 57.2 °F 57% 29.87 in 10.0 mi SW 19.6 mph 28.8 mph N/A   Scattered Clouds
5:51 PM - - N/A% 29.89 in 10.0 mi West 26.5 mph 34.5 mph N/A   Scattered Clouds
6:51 PM 66.2 °F 50.0 °F 56% 29.93 in 10.0 mi West 12.7 mph - N/A   Scattered Clouds
7:51 PM 66.2 °F 50.0 °F 56% 29.94 in 10.0 mi West 19.6 mph 25.3 mph N/A   Scattered Clouds
8:51 PM 62.6 °F 50.0 °F 63% 29.98 in 10.0 mi WNW 13.8 mph 25.3 mph N/A   Mostly Cloudy
10:15 PM 60.8 °F 48.2 °F 63% 30.02 in 10.0 mi WNW 8.1 mph 15.0 mph N/A   Overcast
10:35 PM 59.0 °F 46.4 °F 63% 30.02 in 10.0 mi West 9.2 mph 16.1 mph N/A   Overcast
10:55 PM 59.0 °F 46.4 °F 63% 30.02 in 10.0 mi WNW 9.2 mph - N/A   Overcast
11:15 PM 59.0 °F 46.4 °F 63% 30.02 in 10.0 mi WNW 8.1 mph 16.1 mph N/A   Overcast
11:35 PM 59.0 °F 48.2 °F 67% 30.02 in 10.0 mi WNW 5.8 mph 11.5 mph N/A   Overcast
11:55 PM 55.4 °F 48.2 °F 77% 30.02 in 10.0 mi NNW 11.5 mph - N/A   Overcast